• în România
  • Lista ţărilor
  • Pe 7 zile
  • Temperatura apei
  • Hartă satelitară
  • Meteo pe hartă
  • Widget-uri
  • user-avatar
    Intrare

    Meteo pe oră la Kropotovo

    Astăzi, 22 Iulie, Duminică

    Timp Temperatura Precipitaţii Vânt Presiune Umiditate
    00:00 +19°C° 0 mm 4 m/s 739 mmHg 96%
    01:00 +19°C° 0 mm 4 m/s 739 mmHg 96%
    02:00 +19°C° 0 mm 4 m/s 739 mmHg 97%
    03:00 +19°C° 0 mm 4 m/s 739 mmHg 97%
    04:00 +19°C° 0 mm 4 m/s 739 mmHg 97%
    05:00 +19°C° 0 mm 4 m/s 739 mmHg 97%
    06:00 +19°C° 0 mm 4 m/s 739 mmHg 96%
    07:00 +19°C° 0 mm 4 m/s 739 mmHg 95%
    08:00 +19°C° 0 mm 4 m/s 739 mmHg 94%
    09:00 +20°C° 0 mm 4 m/s 739 mmHg 94%
    10:00 +20°C° 0 mm 5 m/s 739 mmHg 92%
    11:00 +21°C° 0 mm 5 m/s 739 mmHg 90%
    12:00 +21°C° 0 mm 5 m/s 739 mmHg 88%
    13:00 +22°C° 0,4 mm 6 m/s 739 mmHg 85%
    14:00 +23°C° 0,4 mm 6 m/s 739 mmHg 83%
    15:00 +24°C° 0,4 mm 6 m/s 739 mmHg 80%
    16:00 +23°C° 0,5 mm 6 m/s 739 mmHg 82%
    17:00 +23°C° 0,5 mm 5 m/s 739 mmHg 84%
    18:00 +22°C° 0,5 mm 5 m/s 739 mmHg 85%
    19:00 +21°C° 0,2 mm 5 m/s 739 mmHg 88%
    20:00 +20°C° 0,2 mm 5 m/s 739 mmHg 91%
    21:00 +19°C° 0,2 mm 5 m/s 739 mmHg 93%
    22:00 +19°C° 0,1 mm 5 m/s 739 mmHg 94%
    23:00 +19°C° 0,1 mm 5 m/s 739 mmHg 94%

    Mâine, 23 Iulie, Luni

    Timp Temperatura Precipitaţii Vânt Presiune Umiditate
    00:00 +17°C° 0,1 mm 5 m/s 739 mmHg 94%
    01:00 +17°C° 0 mm 5 m/s 739 mmHg 95%
    02:00 +17°C° 0 mm 5 m/s 739 mmHg 95%
    03:00 +17°C° 0 mm 5 m/s 739 mmHg 95%
    04:00 +17°C° 0,1 mm 5 m/s 739 mmHg 95%
    05:00 +17°C° 0,1 mm 5 m/s 739 mmHg 95%
    06:00 +17°C° 0,1 mm 5 m/s 739 mmHg 95%
    07:00 +17°C° 0,1 mm 5 m/s 740 mmHg 94%
    08:00 +17°C° 0,1 mm 5 m/s 740 mmHg 94%
    09:00 +17°C° 0,1 mm 5 m/s 740 mmHg 93%
    10:00 +17°C° 0,1 mm 5 m/s 740 mmHg 92%
    11:00 +17°C° 0,1 mm 5 m/s 740 mmHg 90%
    12:00 +19°C° 0,1 mm 5 m/s 740 mmHg 89%
    13:00 +19°C° 0,1 mm 5 m/s 740 mmHg 88%
    14:00 +20°C° 0,1 mm 5 m/s 740 mmHg 88%
    15:00 +20°C° 0,1 mm 5 m/s 740 mmHg 87%
    16:00 +20°C° 0 mm 5 m/s 740 mmHg 87%
    17:00 +20°C° 0 mm 5 m/s 739 mmHg 88%
    18:00 +20°C° 0 mm 5 m/s 739 mmHg 88%
    19:00 +20°C° 0,3 mm 5 m/s 740 mmHg 90%
    20:00 +20°C° 0,3 mm 5 m/s 740 mmHg 92%
    21:00 +19°C° 0,3 mm 5 m/s 740 mmHg 94%
    22:00 +19°C° 0,2 mm 4 m/s 740 mmHg 95%
    23:00 +19°C° 0,2 mm 4 m/s 740 mmHg 96%

    Poimâine, 24 Iulie, Marţi

    Timp Temperatura Precipitaţii Vânt Presiune Umiditate
    00:00 +19°C° 0,2 mm 4 m/s 740 mmHg 97%
    01:00 +19°C° 0,1 mm 4 m/s 740 mmHg 97%
    02:00 +19°C° 0,1 mm 4 m/s 740 mmHg 97%
    03:00 +19°C° 0,1 mm 4 m/s 740 mmHg 97%
    04:00 +19°C° 0,1 mm 4 m/s 740 mmHg 97%
    05:00 +19°C° 0,1 mm 4 m/s 740 mmHg 97%
    06:00 +19°C° 0,1 mm 4 m/s 741 mmHg 96%
    07:00 +20°C° 0,1 mm 4 m/s 741 mmHg 94%
    08:00 +21°C° 0,1 mm 4 m/s 741 mmHg 92%
    09:00 +21°C° 0,1 mm 4 m/s 741 mmHg 90%
    10:00 +23°C° 0,2 mm 4 m/s 741 mmHg 87%
    11:00 +25°C° 0,2 mm 4 m/s 742 mmHg 83%
    12:00 +26°C° 0,2 mm 4 m/s 742 mmHg 79%
    13:00 +26°C° 0,3 mm 4 m/s 742 mmHg 77%
    14:00 +27°C° 0,3 mm 4 m/s 742 mmHg 74%
    15:00 +28°C° 0,3 mm 4 m/s 742 mmHg 71%
    16:00 +27°C° 0,5 mm 4 m/s 742 mmHg 77%
    17:00 +26°C° 0,5 mm 4 m/s 742 mmHg 82%
    18:00 +25°C° 0,5 mm 4 m/s 743 mmHg 87%
    19:00 +23°C° 0,7 mm 4 m/s 743 mmHg 89%
    20:00 +22°C° 0,7 mm 4 m/s 743 mmHg 91%
    21:00 +21°C° 0,7 mm 4 m/s 744 mmHg 92%
    22:00 +20°C° 0,5 mm 4 m/s 744 mmHg 93%
    23:00 +20°C° 0,5 mm 3 m/s 744 mmHg 94%

    25 Iulie, Miercuri

    Timp Temperatura Precipitaţii Vânt Presiune Umiditate
    00:00 +20°C° 0,5 mm 3 m/s 744 mmHg 95%
    01:00 +19°C° 0 mm 3 m/s 744 mmHg 95%
    02:00 +19°C° 0 mm 3 m/s 744 mmHg 94%
    03:00 +18°C° 0 mm 3 m/s 744 mmHg 94%
    04:00 +18°C° 0 mm 4 m/s 744 mmHg 92%
    05:00 +18°C° 0 mm 4 m/s 744 mmHg 90%
    06:00 +18°C° 0 mm 4 m/s 744 mmHg 87%
    07:00 +19°C° 0 mm 5 m/s 744 mmHg 84%
    08:00 +19°C° 0 mm 5 m/s 744 mmHg 81%
    09:00 +19°C° 0 mm 6 m/s 744 mmHg 79%
    10:00 +21°C° 0 mm 6 m/s 744 mmHg 74%
    11:00 +23°C° 0 mm 7 m/s 744 mmHg 69%
    12:00 +24°C° 0 mm 7 m/s 745 mmHg 64%
    13:00 +26°C° 0 mm 7 m/s 745 mmHg 63%
    14:00 +26°C° 0 mm 7 m/s 745 mmHg 63%
    15:00 +27°C° 0 mm 7 m/s 745 mmHg 62%
    16:00 +27°C° 0 mm 6 m/s 745 mmHg 66%
    17:00 +26°C° 0 mm 5 m/s 745 mmHg 69%
    18:00 +26°C° 0 mm 4 m/s 745 mmHg 73%
    19:00 +25°C° 0 mm 4 m/s 745 mmHg 75%
    20:00 +22°C° 0 mm 4 m/s 746 mmHg 76%
    21:00 +21°C° 0 mm 4 m/s 746 mmHg 78%
    22:00 +20°C° 0 mm 4 m/s 746 mmHg 77%
    23:00 +20°C° 0 mm 4 m/s 746 mmHg 75%

    26 Iulie, Joi

    Timp Temperatura Precipitaţii Vânt Presiune Umiditate
    00:00 +20°C° 0 mm 3 m/s 746 mmHg 74%
    01:00 +19°C° 0 mm 4 m/s 747 mmHg 74%
    02:00 +19°C° 0 mm 4 m/s 747 mmHg 75%
    03:00 +18°C° 0 mm 4 m/s 747 mmHg 75%
    04:00 +18°C° 0 mm 4 m/s 747 mmHg 78%
    05:00 +18°C° 0 mm 4 m/s 747 mmHg 80%
    06:00 +18°C° 0 mm 4 m/s 747 mmHg 82%
    07:00 +20°C° 0 mm 4 m/s 747 mmHg 79%
    08:00 +21°C° 0 mm 5 m/s 748 mmHg 75%
    09:00 +23°C° 0 mm 5 m/s 748 mmHg 72%
    10:00 +26°C° 0 mm 6 m/s 748 mmHg 68%
    11:00 +27°C° 0 mm 6 m/s 748 mmHg 64%
    12:00 +28°C° 0 mm 6 m/s 748 mmHg 61%
    13:00 +29°C° 0 mm 6 m/s 748 mmHg 60%
    14:00 +29°C° 0 mm 6 m/s 748 mmHg 59%
    15:00 +30°C° 0 mm 6 m/s 748 mmHg 59%
    16:00 +29°C° 0 mm 6 m/s 748 mmHg 63%
    17:00 +28°C° 0 mm 5 m/s 748 mmHg 68%
    18:00 +27°C° 0 mm 5 m/s 748 mmHg 72%
    19:00 +26°C° 0 mm 4 m/s 748 mmHg 76%
    20:00 +23°C° 0 mm 4 m/s 748 mmHg 81%
    21:00 +21°C° 0 mm 4 m/s 748 mmHg 85%
    22:00 +21°C° 0,4 mm 4 m/s 749 mmHg 86%
    23:00 +21°C° 0,4 mm 4 m/s 749 mmHg 87%

    27 Iulie, Vineri

    Timp Temperatura Precipitaţii Vânt Presiune Umiditate
    00:00 +20°C° 0,4 mm 4 m/s 749 mmHg 88%
    01:00 +20°C° 0,1 mm 4 m/s 749 mmHg 89%
    02:00 +20°C° 0,1 mm 4 m/s 749 mmHg 89%
    03:00 +19°C° 0,1 mm 3 m/s 749 mmHg 89%
    04:00 +19°C° 0 mm 4 m/s 750 mmHg 89%
    05:00 +20°C° 0 mm 4 m/s 750 mmHg 89%
    06:00 +20°C° 0 mm 4 m/s 750 mmHg 88%
    07:00 +21°C° 0 mm 4 m/s 750 mmHg 85%
    08:00 +22°C° 0 mm 4 m/s 751 mmHg 82%
    09:00 +23°C° 0 mm 4 m/s 751 mmHg 78%
    10:00 +26°C° 0 mm 4 m/s 751 mmHg 72%
    11:00 +27°C° 0 mm 5 m/s 751 mmHg 66%
    12:00 +29°C° 0 mm 5 m/s 751 mmHg 60%
    13:00 +29°C° 0 mm 5 m/s 751 mmHg 60%
    14:00 +29°C° 0 mm 4 m/s 751 mmHg 59%
    15:00 +30°C° 0 mm 4 m/s 751 mmHg 58%
    16:00 +29°C° 0,3 mm 4 m/s 751 mmHg 62%
    17:00 +29°C° 0,3 mm 3 m/s 751 mmHg 66%
    18:00 +28°C° 0,3 mm 2 m/s 750 mmHg 71%
    19:00 +27°C° 0 mm 2 m/s 751 mmHg 73%
    20:00 +25°C° 0 mm 2 m/s 751 mmHg 76%
    21:00 +24°C° 0 mm 2 m/s 751 mmHg 79%
    22:00 +22°C° 0 mm 3 m/s 751 mmHg 80%
    23:00 +21°C° 0 mm 3 m/s 751 mmHg 81%
    Arată mai mult